Volver al catálogo

USA 406

ActivoMilitarVLEO
NORAD 61027·PAYLOAD·🇺🇸 United States

Lanzado Sep 6, 2024 desde Vandenberg Space Force Base

Loading…

Próximos Pases (próximas 24 horas)

TLE

ObsoletoSource: Mike McCants

Época: Sep 9, 2026, 20:05 UTC

1 61027U 24160G   26252.83701278 0.00000000  00000-0  00000-0 0    05
2 61027  70.0130 144.3787 0003000 333.1740  26.8260 14.96713958    04

Sigue USA 406 en tiempo real con AllMySat

Download on the App Store